,,Stat5,,Stat1,,Stat2,,Stat3,,Stat4,,Wind1,,Wind1,
time,status,PA1M_AVG,status,PR1M_SUM,status,RH1M_AVG,status,SR1M_AVG,status,TA1M_AVG,status,W1dAve1m,status,W1sAve1m,
2003-02-19, 00:00:00,VALID,919.21,VALID,0,VALID,92.6936,VALID,-0.0679233,VALID,19.6525,VALID,299,VALID,0,
2003-02-19, 00:01:00,VALID,919.199,VALID,0,VALID,92.6809,VALID,-0.0169808,VALID,19.6256,VALID,299,VALID,0,
2003-02-19, 00:02:00,VALID,919.215,VALID,0,VALID,92.8297,VALID,-0.0169808,VALID,19.6199,VALID,299,VALID,0,
2003-02-19, 00:03:00,VALID,919.221,VALID,0,VALID,92.9619,VALID,-0.0849042,VALID,19.6331,VALID,299,VALID,0,
2003-02-19, 00:04:00,VALID,919.201,VALID,0,VALID,93.0344,VALID,-0.0339617,VALID,19.6097,VALID,299,VALID,0,
2003-02-19, 00:05:00,VALID,919.179,VALID,0,VALID,93.0306,VALID,-0.0679233,VALID,19.6134,VALID,299,VALID,0,
2003-02-19, 00:06:00,VALID,919.179,VALID,0,VALID,93.0484,VALID,-0.135847,VALID,19.6017,VALID,299,VALID,0,
2003-02-19, 00:07:00,VALID,919.171,VALID,0,VALID,92.9479,VALID,-0.118866,VALID,19.5853,VALID,299,VALID,0,
2003-02-19, 00:08:00,VALID,919.152,VALID,0,VALID,92.5461,VALID,-0.118866,VALID,19.5304,VALID,299,VALID,0,
2003-02-19, 00:09:00,VALID,919.132,VALID,0,VALID,92.5016,VALID,-0.118866,VALID,19.4371,VALID,299,VALID,0,
2003-02-19, 00:10:00,VALID,919.102,VALID,0,VALID,92.953,VALID,-0.118866,VALID,19.3595,VALID,299,VALID,0,
2003-02-19, 00:11:00,VALID,919.077,VALID,0,VALID,93.3841,VALID,-0.118866,VALID,19.3113,VALID,299,VALID,0,
2003-02-19, 00:12:00,VALID,919.067,VALID,0,VALID,93.6486,VALID,-0.101885,VALID,19.2556,VALID,299,VALID,0,
2003-02-19, 00:13:00,VALID,919.063,VALID,0,VALID,93.9436,VALID,-0.101885,VALID,19.2265,VALID,299,VALID,0,
2003-02-19, 00:14:00,VALID,919.062,VALID,0,VALID,94.2717,VALID,-0.135847,VALID,19.2138,VALID,299,VALID,0,
2003-02-19, 00:15:00,VALID,919.052,VALID,0,VALID,94.4866,VALID,-0.101885,VALID,19.2337,VALID,299,VALID,0,
2003-02-19, 00:16:00,VALID,919.034,VALID,0,VALID,94.5985,VALID,-0.101885,VALID,19.2302,VALID,299,VALID,0,
2003-02-19, 00:17:00,VALID,919.031,VALID,0,VALID,94.6646,VALID,-0.118866,VALID,19.2009,VALID,299,VALID,0,
2003-02-19, 00:18:00,VALID,919.027,VALID,0,VALID,94.7028,VALID,-0.118866,VALID,19.1974,VALID,299,VALID,0,
2003-02-19, 00:19:00,VALID,919.028,VALID,0,VALID,94.7078,VALID,-0.0849042,VALID,19.1947,VALID,299,VALID,0,
2003-02-19, 00:20:00,VALID,919.022,VALID,0,VALID,94.7193,VALID,-0.0849042,VALID,19.1753,VALID,299,VALID,0,
2003-02-19, 00:21:00,VALID,919.029,VALID,0,VALID,94.76,VALID,-0.0509425,VALID,19.1577,VALID,299,VALID,0,
2003-02-19, 00:22:00,VALID,919.011,VALID,0,VALID,94.8274,VALID,-0.0169808,VALID,19.1455,VALID,299,VALID,0,
2003-02-19, 00:23:00,VALID,918.997,VALID,0,VALID,94.9431,VALID,-0.0679233,VALID,19.103,VALID,299,VALID,0,
2003-02-19, 00:24:00,VALID,918.97,VALID,0,VALID,95.2178,VALID,-0.0339617,VALID,19.0801,VALID,298,VALID,0.315584,
2003-02-19, 00:25:00,VALID,918.946,VALID,0,VALID,95.6552,VALID,-0.0509425,VALID,19.0803,VALID,127,VALID,0.445313,
2003-02-19, 00:26:00,VALID,918.922,VALID,0,VALID,95.8001,VALID,0,VALID,19.0704,VALID,123,VALID,0.196875,
2003-02-19, 00:27:00,VALID,918.924,VALID,0,VALID,95.7849,VALID,0,VALID,19.0706,VALID,123,VALID,0.00560897,
2003-02-19, 00:28:00,VALID,918.9,VALID,0,VALID,95.776,VALID,-0.0169808,VALID,19.0475,VALID,123,VALID,0.154139,
2003-02-19, 00:29:00,VALID,918.914,VALID,0,VALID,95.9451,VALID,-0.0339617,VALID,19.0448,VALID,123,VALID,0.309755,
2003-02-19, 00:30:00,VALID,918.916,VALID,0,VALID,95.9909,VALID,-0.0339617,VALID,19.0356,VALID,123,VALID,0.0599662,
2003-02-19, 00:31:00,VALID,918.908,VALID,0,VALID,96.1155,VALID,-0.0169808,VALID,19.0159,VALID,123,VALID,0.188839,
2003-02-19, 00:32:00,VALID,918.883,VALID,0,VALID,96.1371,VALID,0,VALID,19.0125,VALID,123,VALID,0.00422297,
2003-02-19, 00:33:00,VALID,918.868,VALID,0,VALID,96.0939,VALID,-0.0509425,VALID,18.9898,VALID,123,VALID,0,
2003-02-19, 00:34:00,VALID,918.868,VALID,0,VALID,95.9782,VALID,0,VALID,18.9543,VALID,123,VALID,0.0688734,
2003-02-19, 00:35:00,VALID,918.848,VALID,0,VALID,95.9858,VALID,-0.0339617,VALID,18.9344,VALID,123,VALID,0.219572,
2003-02-19, 00:36:00,VALID,918.854,VALID,0,VALID,95.851,VALID,0.0849042,VALID,18.9076,VALID,123,VALID,0.299924,
2003-02-19, 00:37:00,VALID,918.833,VALID,0,VALID,95.6959,VALID,0.101885,VALID,18.8688,VALID,123,VALID,0.331414,
2003-02-19, 00:38:00,VALID,918.811,VALID,0,VALID,95.8027,VALID,0.0679233,VALID,18.8395,VALID,117,VALID,0.428248,
2003-02-19, 00:39:00,VALID,918.801,VALID,0,VALID,96.2732,VALID,0.0849042,VALID,18.8594,VALID,73,VALID,0.737277,
2003-02-19, 00:40:00,VALID,918.78,VALID,0,VALID,96.5046,VALID,0.0679233,VALID,18.8656,VALID,74,VALID,0.698191,
2003-02-19, 00:41:00,VALID,918.762,VALID,0,VALID,96.5695,VALID,0.0849042,VALID,18.8559,VALID,74,VALID,0.678795,
2003-02-19, 00:42:00,VALID,918.742,VALID,0,VALID,96.8365,VALID,0.0849042,VALID,18.8596,VALID,75,VALID,0.810213,
2003-02-19, 00:43:00,VALID,918.724,VALID,0,VALID,97.2358,VALID,0.0339617,VALID,18.8656,VALID,80,VALID,0.798478,
2003-02-19, 00:44:00,VALID,918.715,VALID,0,VALID,97.5867,VALID,0.0339617,VALID,18.9046,VALID,80,VALID,0.590255,
2003-02-19, 00:45:00,VALID,918.71,VALID,0,VALID,97.6885,VALID,0.0679233,VALID,18.9404,VALID,81,VALID,0.430921,
2003-02-19, 00:46:00,VALID,918.687,VALID,0,VALID,97.5766,VALID,0.0679233,VALID,18.9238,VALID,81,VALID,0.407422,
2003-02-19, 00:47:00,VALID,918.655,VALID,0,VALID,97.4176,VALID,0.0509425,VALID,18.8947,VALID,81,VALID,0.56764,
2003-02-19, 00:48:00,VALID,918.629,VALID,0,VALID,97.4431,VALID,0.0679233,VALID,18.8889,VALID,81,VALID,0.720017,
2003-02-19, 00:49:00,VALID,918.634,VALID,0,VALID,97.6033,VALID,-0.0339617,VALID,18.8929,VALID,81,VALID,0.664274,
2003-02-19, 00:50:00,VALID,918.621,VALID,0,VALID,97.5372,VALID,0,VALID,18.9028,VALID,81,VALID,0.58724,
2003-02-19, 00:51:00,VALID,918.619,VALID,0,VALID,97.5079,VALID,0,VALID,18.8698,VALID,81,VALID,0.498214,
2003-02-19, 00:52:00,VALID,918.593,VALID,0,VALID,97.5422,VALID,0.0169808,VALID,18.8636,VALID,81,VALID,0.448171,
2003-02-19, 00:53:00,VALID,918.583,VALID,0,VALID,97.6325,VALID,0,VALID,18.8608,VALID,83,VALID,0.353674,
2003-02-19, 00:54:00,VALID,918.591,VALID,0,VALID,97.6224,VALID,0,VALID,18.8412,VALID,92,VALID,0.476151,
2003-02-19, 00:55:00,VALID,918.585,VALID,0,VALID,97.8868,VALID,0,VALID,18.8474,VALID,112,VALID,0.710304,
2003-02-19, 00:56:00,VALID,918.585,VALID,0,VALID,98.1272,VALID,-0.0169808,VALID,18.8929,VALID,115,VALID,0.804883,
2003-02-19, 00:57:00,VALID,918.571,VALID,0,VALID,98.2048,VALID,0,VALID,18.9254,VALID,115,VALID,0.656851,
2003-02-19, 00:58:00,VALID,918.571,VALID,0,VALID,98.1615,VALID,0,VALID,18.9312,VALID,114,VALID,0.545186,
2003-02-19, 00:59:00,VALID,918.556,VALID,0,VALID,98,VALID,0,VALID,18.9284,VALID,114,VALID,0.278294,
2003-02-19, 01:00:00,VALID,918.552,VALID,0,VALID,97.8156,VALID,0,VALID,18.8926,VALID,114,VALID,0.216427,
2003-02-19, 01:01:00,VALID,918.544,VALID,0,VALID,97.6923,VALID,0,VALID,18.867,VALID,114,VALID,0.242857,
2003-02-19, 01:02:00,VALID,918.537,VALID,0,VALID,97.7432,VALID,0,VALID,18.8474,VALID,114,VALID,0.315878,
2003-02-19, 01:03:00,VALID,918.521,VALID,0,VALID,97.8818,VALID,0.0169808,VALID,18.8638,VALID,114,VALID,0.399071,
2003-02-19, 01:04:00,VALID,918.516,VALID,0,VALID,97.9987,VALID,0,VALID,18.874,VALID,113,VALID,0.505345,
2003-02-19, 01:05:00,VALID,918.511,VALID,0,VALID,98.1844,VALID,-0.0339617,VALID,18.8931,VALID,113,VALID,0.745888,
2003-02-19, 01:06:00,VALID,918.494,VALID,0,VALID,98.2365,VALID,0,VALID,18.9056,VALID,110,VALID,0.870999,
2003-02-19, 01:07:00,VALID,918.472,VALID,0,VALID,98.3141,VALID,0,VALID,18.9451,VALID,112,VALID,0.794202,
2003-02-19, 01:08:00,VALID,918.458,VALID,0,VALID,98.3179,VALID,0,VALID,18.9478,VALID,112,VALID,0.859375,
2003-02-19, 01:09:00,VALID,918.45,VALID,0,VALID,98.2887,VALID,0,VALID,18.954,VALID,112,VALID,0.770759,
2003-02-19, 01:10:00,VALID,918.441,VALID,0,VALID,98.2683,VALID,0,VALID,18.9734,VALID,114,VALID,0.866982,
2003-02-19, 01:11:00,VALID,918.448,VALID,0,VALID,98.1628,VALID,0.0169808,VALID,18.9797,VALID,113,VALID,0.924554,
2003-02-19, 01:12:00,VALID,918.438,VALID,0,VALID,98.1666,VALID,0,VALID,18.997,VALID,111,VALID,1.07241,
2003-02-19, 01:13:00,VALID,918.439,VALID,0,VALID,98.056,VALID,0,VALID,18.9931,VALID,111,VALID,0.872596,
2003-02-19, 01:14:00,VALID,918.434,VALID,0,VALID,98.0051,VALID,-0.0169808,VALID,18.9901,VALID,111,VALID,1.01295,
2003-02-19, 01:15:00,VALID,918.412,VALID,0,VALID,97.9873,VALID,0,VALID,18.9836,VALID,112,VALID,1.02878,
2003-02-19, 01:16:00,VALID,918.396,VALID,0,VALID,97.972,VALID,0.0169808,VALID,18.9898,VALID,119,VALID,1.08711,
2003-02-19, 01:17:00,VALID,918.385,VALID,0,VALID,97.9797,VALID,0.0169808,VALID,18.9898,VALID,119,VALID,0.970189,
2003-02-19, 01:18:00,VALID,918.368,VALID,0,VALID,97.9962,VALID,0,VALID,18.9861,VALID,121,VALID,0.692779,
2003-02-19, 01:19:00,VALID,918.345,VALID,0,VALID,97.953,VALID,0.0339617,VALID,18.9928,VALID,118,VALID,0.681799,
2003-02-19, 01:20:00,VALID,918.324,VALID,0,VALID,97.939,VALID,-0.0169808,VALID,18.9864,VALID,119,VALID,0.598524,
2003-02-19, 01:21:00,VALID,918.288,VALID,0,VALID,97.8436,VALID,0.0169808,VALID,18.9799,VALID,118,VALID,0.715179,
2003-02-19, 01:22:00,VALID,918.271,VALID,0,VALID,97.7635,VALID,-0.0169808,VALID,18.9868,VALID,118,VALID,0.807165,
2003-02-19, 01:23:00,VALID,918.257,VALID,0,VALID,97.7953,VALID,0,VALID,18.9707,VALID,118,VALID,1.03019,
2003-02-19, 01:24:00,VALID,918.245,VALID,0,VALID,97.8462,VALID,0,VALID,18.9704,VALID,113,VALID,0.992393,
2003-02-19, 01:25:00,VALID,918.243,VALID,0,VALID,97.8614,VALID,0.0169808,VALID,18.9707,VALID,110,VALID,1.02745,
2003-02-19, 01:26:00,VALID,918.212,VALID,0,VALID,97.8932,VALID,0,VALID,18.9677,VALID,108,VALID,1.16465,
2003-02-19, 01:27:00,VALID,918.196,VALID,0,VALID,97.883,VALID,-0.0169808,VALID,18.967,VALID,107,VALID,0.971755,
2003-02-19, 01:28:00,VALID,918.19,VALID,0,VALID,97.8614,VALID,0,VALID,18.9642,VALID,107,VALID,1.02597,
2003-02-19, 01:29:00,VALID,918.179,VALID,0,VALID,97.7813,VALID,0,VALID,18.9742,VALID,111,VALID,1.04096,
2003-02-19, 01:30:00,VALID,918.168,VALID,0,VALID,97.7368,VALID,0,VALID,18.964,VALID,114,VALID,0.952069,
2003-02-19, 01:31:00,VALID,918.165,VALID,0,VALID,97.7126,VALID,0.0169808,VALID,18.9647,VALID,114,VALID,0.95558,
2003-02-19, 01:32:00,VALID,918.158,VALID,0,VALID,97.7254,VALID,0,VALID,18.9545,VALID,113,VALID,0.939189,
2003-02-19, 01:33:00,VALID,918.151,VALID,0,VALID,97.644,VALID,0,VALID,18.9612,VALID,103,VALID,0.702914,
2003-02-19, 01:34:00,VALID,918.148,VALID,0,VALID,97.6313,VALID,0,VALID,18.9578,VALID,104,VALID,0.733553,
2003-02-19, 01:35:00,VALID,918.143,VALID,0,VALID,97.63,VALID,0,VALID,18.9578,VALID,105,VALID,0.715461,
2003-02-19, 01:36:00,VALID,918.13,VALID,0,VALID,97.5588,VALID,-0.0169808,VALID,18.9575,VALID,92,VALID,0.655488,
2003-02-19, 01:37:00,VALID,918.127,VALID,0,VALID,97.3846,VALID,0,VALID,18.9508,VALID,86,VALID,0.844572,
2003-02-19, 01:38:00,VALID,918.115,VALID,0,VALID,97.2625,VALID,0,VALID,18.9321,VALID,86,VALID,0.86986,
2003-02-19, 01:39:00,VALID,918.105,VALID,0,VALID,97.1099,VALID,0,VALID,18.8996,VALID,76,VALID,0.752455,
2003-02-19, 01:40:00,VALID,918.11,VALID,0,VALID,97.0667,VALID,-0.0169808,VALID,18.8772,VALID,72,VALID,0.823396,
2003-02-19, 01:41:00,VALID,918.095,VALID,0,VALID,97.1048,VALID,0,VALID,18.858,VALID,72,VALID,0.85692,
2003-02-19, 01:42:00,VALID,918.095,VALID,0,VALID,97.1989,VALID,0.0169808,VALID,18.8446,VALID,76,VALID,0.796303,
2003-02-19, 01:43:00,VALID,918.083,VALID,0,VALID,97.2943,VALID,-0.0169808,VALID,18.8287,VALID,76,VALID,0.870793,
2003-02-19, 01:44:00,VALID,918.069,VALID,0,VALID,97.4609,VALID,0,VALID,18.8382,VALID,77,VALID,0.823191,
2003-02-19, 01:45:00,VALID,918.07,VALID,0,VALID,97.5562,VALID,0.0169808,VALID,18.825,VALID,80,VALID,0.886513,
2003-02-19, 01:46:00,VALID,918.059,VALID,0,VALID,97.7419,VALID,0,VALID,18.8449,VALID,96,VALID,0.967383,
2003-02-19, 01:47:00,VALID,918.05,VALID,0,VALID,97.7826,VALID,0,VALID,18.8546,VALID,111,VALID,0.738281,
2003-02-19, 01:48:00,VALID,918.043,VALID,0,VALID,97.7966,VALID,-0.0169808,VALID,18.8707,VALID,124,VALID,0.624789,
2003-02-19, 01:49:00,VALID,918.05,VALID,0,VALID,97.7978,VALID,-0.0169808,VALID,18.8735,VALID,115,VALID,0.822002,
2003-02-19, 01:50:00,VALID,918.034,VALID,0,VALID,97.7635,VALID,0,VALID,18.8867,VALID,119,VALID,0.849392,
2003-02-19, 01:51:00,VALID,918.034,VALID,0,VALID,97.7826,VALID,0,VALID,18.8931,VALID,123,VALID,1.01094,
2003-02-19, 01:52:00,VALID,918.02,VALID,0,VALID,97.7991,VALID,0,VALID,18.9254,VALID,126,VALID,1.00152,
2003-02-19, 01:53:00,VALID,918.018,VALID,0,VALID,97.6491,VALID,0,VALID,18.9478,VALID,123,VALID,1.20608,
2003-02-19, 01:54:00,VALID,918.017,VALID,0,VALID,97.4736,VALID,-0.0169808,VALID,18.9543,VALID,122,VALID,1.13651,
2003-02-19, 01:55:00,VALID,918.017,VALID,0,VALID,97.3273,VALID,-0.0509425,VALID,18.9647,VALID,122,VALID,1.10156,
2003-02-19, 01:56:00,VALID,918.013,VALID,0,VALID,97.2358,VALID,-0.0169808,VALID,18.9645,VALID,118,VALID,1.07422,
2003-02-19, 01:57:00,VALID,918.013,VALID,0,VALID,97.1926,VALID,-0.0169808,VALID,18.9679,VALID,116,VALID,0.934095,
2003-02-19, 01:58:00,VALID,918.001,VALID,0,VALID,97.2345,VALID,-0.0339617,VALID,18.961,VALID,111,VALID,0.767314,
2003-02-19, 01:59:00,VALID,917.993,VALID,0,VALID,97.1175,VALID,0,VALID,18.9672,VALID,97,VALID,0.546242,
2003-02-19, 02:00:00,VALID,917.983,VALID,0,VALID,97.0183,VALID,-0.0169808,VALID,18.9585,VALID,83,VALID,0.697424,
2003-02-19, 02:01:00,VALID,917.963,VALID,0,VALID,97.0578,VALID,-0.0169808,VALID,18.9545,VALID,96,VALID,0.791295,
2003-02-19, 02:02:00,VALID,917.945,VALID,0,VALID,97.059,VALID,0,VALID,18.9712,VALID,103,VALID,0.877745,
2003-02-19, 02:03:00,VALID,917.925,VALID,0,VALID,96.9751,VALID,-0.0169808,VALID,18.9744,VALID,111,VALID,0.872466,
2003-02-19, 02:04:00,VALID,917.929,VALID,0,VALID,96.9344,VALID,-0.0339617,VALID,18.9645,VALID,120,VALID,0.608964,
2003-02-19, 02:05:00,VALID,917.917,VALID,0,VALID,96.867,VALID,-0.0169808,VALID,18.9511,VALID,121,VALID,0.83162,
2003-02-19, 02:06:00,VALID,917.924,VALID,0,VALID,96.867,VALID,-0.0339617,VALID,18.9545,VALID,120,VALID,0.924924,
2003-02-19, 02:07:00,VALID,917.934,VALID,0,VALID,96.8721,VALID,-0.0339617,VALID,18.9615,VALID,125,VALID,0.773849,
2003-02-19, 02:08:00,VALID,917.93,VALID,0,VALID,96.82,VALID,-0.0339617,VALID,18.9582,VALID,127,VALID,0.411595,
2003-02-19, 02:09:00,VALID,917.942,VALID,0,VALID,96.7704,VALID,0,VALID,18.9548,VALID,125,VALID,0.384821,
2003-02-19, 02:10:00,VALID,917.964,VALID,0,VALID,96.7195,VALID,-0.0509425,VALID,18.9485,VALID,125,VALID,0.626234,
2003-02-19, 02:11:00,VALID,917.951,VALID,0,VALID,96.7093,VALID,-0.0509425,VALID,18.9257,VALID,113,VALID,0.497098,
2003-02-19, 02:12:00,VALID,917.964,VALID,0,VALID,96.7704,VALID,-0.0509425,VALID,18.8993,VALID,120,VALID,0.612805,
2003-02-19, 02:13:00,VALID,917.965,VALID,0,VALID,96.8785,VALID,-0.0169808,VALID,18.8936,VALID,123,VALID,0.954527,
2003-02-19, 02:14:00,VALID,917.953,VALID,0,VALID,96.923,VALID,-0.0679233,VALID,18.8906,VALID,135,VALID,0.73787,
2003-02-19, 02:15:00,VALID,917.946,VALID,0,VALID,96.9179,VALID,-0.0679233,VALID,18.8938,VALID,114,VALID,0.643298,
2003-02-19, 02:16:00,VALID,917.955,VALID,0,VALID,96.9293,VALID,-0.0169808,VALID,18.8998,VALID,121,VALID,0.841211,
2003-02-19, 02:17:00,VALID,917.955,VALID,0,VALID,96.8797,VALID,-0.0509425,VALID,18.9035,VALID,114,VALID,0.934416,
2003-02-19, 02:18:00,VALID,917.965,VALID,0,VALID,96.8174,VALID,-0.0339617,VALID,18.8961,VALID,104,VALID,0.879012,
2003-02-19, 02:19:00,VALID,917.953,VALID,0,VALID,96.8047,VALID,-0.0169808,VALID,18.8901,VALID,107,VALID,0.958826,
2003-02-19, 02:20:00,VALID,917.953,VALID,0,VALID,96.8441,VALID,0,VALID,18.8834,VALID,111,VALID,0.82921,
2003-02-19, 02:21:00,VALID,917.953,VALID,0,VALID,96.8785,VALID,0.0509425,VALID,18.8852,VALID,111,VALID,1.02679,
2003-02-19, 02:22:00,VALID,917.96,VALID,0,VALID,96.8836,VALID,0.0509425,VALID,18.8788,VALID,111,VALID,0.897866,
2003-02-19, 02:23:00,VALID,917.952,VALID,0,VALID,96.8836,VALID,0.0509425,VALID,18.8698,VALID,112,VALID,0.94848,
2003-02-19, 02:24:00,VALID,917.938,VALID,0,VALID,96.8912,VALID,0.0849042,VALID,18.8661,VALID,108,VALID,1.00761,
2003-02-19, 02:25:00,VALID,917.934,VALID,0,VALID,96.8327,VALID,0.0339617,VALID,18.8566,VALID,104,VALID,0.856841,
2003-02-19, 02:26:00,VALID,917.928,VALID,0,VALID,96.9001,VALID,0.0679233,VALID,18.8467,VALID,101,VALID,0.998047,
2003-02-19, 02:27:00,VALID,917.933,VALID,0,VALID,96.9153,VALID,0.0679233,VALID,18.8437,VALID,102,VALID,0.844351,
2003-02-19, 02:28:00,VALID,917.935,VALID,0,VALID,96.9726,VALID,0.0679233,VALID,18.8243,VALID,103,VALID,0.872255,
2003-02-19, 02:29:00,VALID,917.935,VALID,0,VALID,96.9738,VALID,0.0679233,VALID,18.8178,VALID,102,VALID,0.774916,
2003-02-19, 02:30:00,VALID,917.934,VALID,0,VALID,97.0361,VALID,0.101885,VALID,18.798,VALID,102,VALID,0.82897,
2003-02-19, 02:31:00,VALID,917.934,VALID,0,VALID,97.0552,VALID,0.0509425,VALID,18.8019,VALID,102,VALID,0.857143,
2003-02-19, 02:32:00,VALID,917.934,VALID,0,VALID,97.0501,VALID,0.0509425,VALID,18.785,VALID,103,VALID,0.769426,
2003-02-19, 02:33:00,VALID,917.953,VALID,0,VALID,97.0476,VALID,0.0849042,VALID,18.7761,VALID,105,VALID,0.820946,
2003-02-19, 02:34:00,VALID,917.965,VALID,0,VALID,97.0094,VALID,0.0679233,VALID,18.7631,VALID,104,VALID,0.772204,
2003-02-19, 02:35:00,VALID,917.961,VALID,0,VALID,97.0514,VALID,0.0509425,VALID,18.7437,VALID,108,VALID,0.886719,
2003-02-19, 02:36:00,VALID,917.969,VALID,0,VALID,97.0997,VALID,-0.0509425,VALID,18.7218,VALID,107,VALID,1.17702,
2003-02-19, 02:37:00,VALID,917.962,VALID,0,VALID,97.1239,VALID,-0.0509425,VALID,18.7191,VALID,110,VALID,1.12007,
2003-02-19, 02:38:00,VALID,917.942,VALID,0,VALID,97.1366,VALID,-0.0169808,VALID,18.6964,VALID,114,VALID,0.901727,
2003-02-19, 02:39:00,VALID,917.932,VALID,0,VALID,97.1798,VALID,-0.0169808,VALID,18.6801,VALID,108,VALID,0.859375,
2003-02-19, 02:40:00,VALID,917.917,VALID,0,VALID,97.2421,VALID,-0.0169808,VALID,18.6701,VALID,104,VALID,0.92352,
2003-02-19, 02:41:00,VALID,917.896,VALID,0,VALID,97.4024,VALID,0,VALID,18.654,VALID,106,VALID,1.07723,
2003-02-19, 02:42:00,VALID,917.897,VALID,0,VALID,97.5194,VALID,0,VALID,18.6507,VALID,107,VALID,1.03182,
2003-02-19, 02:43:00,VALID,917.895,VALID,0,VALID,97.588,VALID,-0.0169808,VALID,18.6544,VALID,105,VALID,1.14163,
2003-02-19, 02:44:00,VALID,917.875,VALID,0,VALID,97.6503,VALID,-0.0169808,VALID,18.6512,VALID,106,VALID,1.07072,
2003-02-19, 02:45:00,VALID,917.871,VALID,0,VALID,97.6211,VALID,0,VALID,18.6445,VALID,114,VALID,1.18092,
2003-02-19, 02:46:00,VALID,917.861,VALID,0,VALID,97.5715,VALID,-0.0169808,VALID,18.6547,VALID,112,VALID,0.967188,
2003-02-19, 02:47:00,VALID,917.854,VALID,0,VALID,97.4901,VALID,-0.0339617,VALID,18.6477,VALID,113,VALID,1.13507,
2003-02-19, 02:48:00,VALID,917.862,VALID,0,VALID,97.349,VALID,-0.0339617,VALID,18.6577,VALID,108,VALID,1.05384,
2003-02-19, 02:49:00,VALID,917.861,VALID,0,VALID,97.176,VALID,-0.0339617,VALID,18.6771,VALID,114,VALID,0.86951,
2003-02-19, 02:50:00,VALID,917.858,VALID,0,VALID,96.984,VALID,-0.0509425,VALID,18.6833,VALID,114,VALID,0.968099,
2003-02-19, 02:51:00,VALID,917.862,VALID,0,VALID,96.8289,VALID,-0.0339617,VALID,18.6997,VALID,116,VALID,1.00268,
2003-02-19, 02:52:00,VALID,917.856,VALID,0,VALID,96.6419,VALID,-0.0339617,VALID,18.7087,VALID,113,VALID,0.94112,
2003-02-19, 02:53:00,VALID,917.859,VALID,0,VALID,96.4805,VALID,0,VALID,18.7156,VALID,114,VALID,1.00021,
2003-02-19, 02:54:00,VALID,917.846,VALID,0,VALID,96.3317,VALID,0,VALID,18.7218,VALID,117,VALID,1.11472,
2003-02-19, 02:55:00,VALID,917.84,VALID,0,VALID,96.1893,VALID,0,VALID,18.7255,VALID,110,VALID,1.10051,
2003-02-19, 02:56:00,VALID,917.825,VALID,0,VALID,96.0189,VALID,0,VALID,18.7382,VALID,103,VALID,1.07578,
2003-02-19, 02:57:00,VALID,917.806,VALID,0,VALID,95.907,VALID,0,VALID,18.7507,VALID,107,VALID,1.03446,
2003-02-19, 02:58:00,VALID,917.8,VALID,0,VALID,95.8218,VALID,0,VALID,18.7569,VALID,110,VALID,1.03906,
2003-02-19, 02:59:00,VALID,917.795,VALID,0,VALID,95.7633,VALID,0,VALID,18.7738,VALID,115,VALID,1.00971,
2003-02-19, 03:00:00,VALID,917.773,VALID,0,VALID,95.7836,VALID,0.0169808,VALID,18.774,VALID,122,VALID,1.01394,
2003-02-19, 03:01:00,VALID,917.768,VALID,0,VALID,95.7658,VALID,-0.0169808,VALID,18.7668,VALID,116,VALID,0.810714,
2003-02-19, 03:02:00,VALID,917.772,VALID,0,VALID,95.7175,VALID,-0.0169808,VALID,18.7636,VALID,112,VALID,0.893581,
2003-02-19, 03:03:00,VALID,917.765,VALID,0,VALID,95.6539,VALID,0,VALID,18.7608,VALID,110,VALID,1.09143,
2003-02-19, 03:04:00,VALID,917.763,VALID,0,VALID,95.6361,VALID,0,VALID,18.7641,VALID,104,VALID,1.01953,
2003-02-19, 03:05:00,VALID,917.773,VALID,0,VALID,95.5878,VALID,0,VALID,18.7574,VALID,110,VALID,1.08635,
2003-02-19, 03:06:00,VALID,917.773,VALID,0,VALID,95.556,VALID,0,VALID,18.7608,VALID,107,VALID,0.924162,
2003-02-19, 03:07:00,VALID,917.784,VALID,0,VALID,95.5929,VALID,-0.0169808,VALID,18.7507,VALID,105,VALID,1.00535,
2003-02-19, 03:08:00,VALID,917.785,VALID,0,VALID,95.7188,VALID,0,VALID,18.7546,VALID,104,VALID,1.08409,
2003-02-19, 03:09:00,VALID,917.782,VALID,0,VALID,95.8192,VALID,0,VALID,18.7546,VALID,103,VALID,1.06964,
2003-02-19, 03:10:00,VALID,917.784,VALID,0,VALID,95.7912,VALID,0,VALID,18.7544,VALID,104,VALID,1.09108,
2003-02-19, 03:11:00,VALID,917.768,VALID,0,VALID,95.8167,VALID,0,VALID,18.7412,VALID,116,VALID,0.989286,
2003-02-19, 03:12:00,VALID,917.761,VALID,0,VALID,95.8218,VALID,0,VALID,18.7382,VALID,108,VALID,1.02077,
2003-02-19, 03:13:00,VALID,917.741,VALID,0,VALID,95.8536,VALID,0,VALID,18.7216,VALID,116,VALID,0.997997,
2003-02-19, 03:14:00,VALID,917.731,VALID,0,VALID,95.8574,VALID,0.0169808,VALID,18.7253,VALID,118,VALID,0.955798,
2003-02-19, 03:15:00,VALID,917.706,VALID,0,VALID,95.8574,VALID,0,VALID,18.7184,VALID,119,VALID,0.910362,
2003-02-19, 03:16:00,VALID,917.696,VALID,0,VALID,95.8141,VALID,0,VALID,18.7285,VALID,115,VALID,0.885938,
2003-02-19, 03:17:00,VALID,917.685,VALID,0,VALID,95.7531,VALID,0,VALID,18.7218,VALID,112,VALID,0.802632,
2003-02-19, 03:18:00,VALID,917.674,VALID,0,VALID,95.7327,VALID,0,VALID,18.7184,VALID,111,VALID,0.831926,
2003-02-19, 03:19:00,VALID,917.674,VALID,0,VALID,95.7391,VALID,0.0339617,VALID,18.7119,VALID,105,VALID,0.8106,
2003-02-19, 03:20:00,VALID,917.663,VALID,0,VALID,95.7747,VALID,0,VALID,18.6955,VALID,99,VALID,0.655382,
2003-02-19, 03:21:00,VALID,917.67,VALID,0,VALID,95.7722,VALID,0.0169808,VALID,18.6987,VALID,111,VALID,0.63683,
2003-02-19, 03:22:00,VALID,917.68,VALID,0,VALID,95.7569,VALID,0.0169808,VALID,18.7024,VALID,128,VALID,0.629954,
2003-02-19, 03:23:00,VALID,917.686,VALID,0,VALID,95.6641,VALID,0.0169808,VALID,18.6962,VALID,108,VALID,0.701858,
2003-02-19, 03:24:00,VALID,917.683,VALID,0,VALID,95.5598,VALID,0,VALID,18.6997,VALID,98,VALID,0.600123,
2003-02-19, 03:25:00,VALID,917.688,VALID,0,VALID,95.4644,VALID,0,VALID,18.6895,VALID,111,VALID,0.800042,
2003-02-19, 03:26:00,VALID,917.682,VALID,0,VALID,95.3538,VALID,0,VALID,18.6994,VALID,113,VALID,0.688086,
2003-02-19, 03:27:00,VALID,917.68,VALID,0,VALID,95.2394,VALID,-0.0169808,VALID,18.6992,VALID,112,VALID,0.627404,
2003-02-19, 03:28:00,VALID,917.678,VALID,0,VALID,95.1453,VALID,0,VALID,18.7121,VALID,111,VALID,0.639147,
2003-02-19, 03:29:00,VALID,917.682,VALID,0,VALID,95.0982,VALID,0,VALID,18.7285,VALID,102,VALID,0.660895,
2003-02-19, 03:30:00,VALID,917.684,VALID,0,VALID,95.0766,VALID,0,VALID,18.7417,VALID,102,VALID,0.749367,
2003-02-19, 03:31:00,VALID,917.697,VALID,0,VALID,95.0257,VALID,0,VALID,18.7412,VALID,110,VALID,0.835714,
2003-02-19, 03:32:00,VALID,917.704,VALID,0,VALID,94.8973,VALID,0.0169808,VALID,18.7509,VALID,116,VALID,0.943834,
2003-02-19, 03:33:00,VALID,917.696,VALID,0,VALID,94.779,VALID,0,VALID,18.7738,VALID,120,VALID,0.732475,
2003-02-19, 03:34:00,VALID,917.716,VALID,0,VALID,94.6697,VALID,0,VALID,18.7703,VALID,122,VALID,1.13405,
2003-02-19, 03:35:00,VALID,917.72,VALID,0,VALID,94.5273,VALID,-0.0339617,VALID,18.7934,VALID,122,VALID,0.734581,
2003-02-19, 03:36:00,VALID,917.728,VALID,0,VALID,94.5324,VALID,0,VALID,18.816,VALID,123,VALID,0.335747,
2003-02-19, 03:37:00,VALID,917.725,VALID,0,VALID,94.5502,VALID,0,VALID,18.8352,VALID,115,VALID,0.628701,
2003-02-19, 03:38:00,VALID,917.73,VALID,0,VALID,94.47,VALID,-0.0339617,VALID,18.8287,VALID,121,VALID,0.747327,